This is the latest recevied weather packets stored in our database for station/object DM1RG-6. If no packets are shown the sender has not sent any weather packets the latest 1 day(s).
| Time | Temp. | Humidity | Pressure | Rain* | Wind** | Luminosity | Snow |
|---|---|---|---|---|---|---|---|
| 1778008324 | 16.11° C | 85% | 1006.2 hPa | 0 mm | 2.68 m/s, 45° | - | - |
| 1778007964 | 16.11° C | 84% | 1006.2 hPa | 0 mm | 2.24 m/s, 37° | - | - |
| 1778007603 | 16.11° C | 84% | 1006.2 hPa | 0 mm | 2.68 m/s, 27° | - | - |
| 1778007243 | 16.67° C | 84% | 1006 hPa | 0 mm | 2.68 m/s, 22° | - | - |
| 1778006883 | 16.67° C | 83% | 1006.1 hPa | 0 mm | 2.68 m/s, 29° | - | - |
| 1778006523 | 16.67° C | 83% | 1006.2 hPa | 0 mm | 2.24 m/s, 36° | - | - |
| 1778006164 | 16.67° C | 83% | 1006.1 hPa | 0 mm | 2.68 m/s, 32° | - | - |
| 1778005804 | 16.67° C | 82% | 1006.3 hPa | 0 mm | 3.13 m/s, 35° | - | - |
| 1778005444 | 16.67° C | 82% | 1006.1 hPa | 0 mm | 3.13 m/s, 44° | - | - |
| 1778005083 | 17.22° C | 81% | 1006 hPa | 0 mm | 3.58 m/s, 45° | - | - |
| 1778004723 | 17.22° C | 81% | 1006.3 hPa | 0 mm | 3.58 m/s, 39° | - | - |
| 1778004364 | 17.22° C | 81% | 1006 hPa | 0 mm | 3.58 m/s, 40° | - | - |
| 1778004003 | 17.22° C | 80% | 1006 hPa | 0 mm | 3.58 m/s, 41° | - | - |
| 1778003643 | 17.78° C | 80% | 1005.9 hPa | 0 mm | 3.13 m/s, 27° | - | - |
| 1778003284 | 17.78° C | 79% | 1006.1 hPa | 0 mm | 2.68 m/s, 24° | - | - |
| 1778002923 | 18.33° C | 75% | 1005.9 hPa | 0 mm | 0.89 m/s, 6° | - | - |
| 1778002563 | 18.33° C | 74% | 1006 hPa | 0 mm | 0.89 m/s, 5° | - | - |
| 1778002204 | 18.33° C | 73% | 1005.9 hPa | 0 mm | 1.34 m/s, 25° | - | - |
| 1778001843 | 18.33° C | 73% | 1006.2 hPa | 0 mm | 1.34 m/s, 18° | - | - |
| 1778001483 | 18.33° C | 72% | 1005.9 hPa | 0 mm | 1.34 m/s, 359° | - | - |
| 1778001124 | 18.33° C | 72% | 1006.2 hPa | 0 mm | 1.34 m/s, 13° | - | - |
| 1778000764 | 18.89° C | 72% | 1006.1 hPa | 0 mm | 1.34 m/s, 19° | - | - |
| 1778000403 | 18.33° C | 71% | 1006.1 hPa | 0 mm | 1.34 m/s, 21° | - | - |
| 1778000043 | 18.89° C | 71% | 1006.2 hPa | 0 mm | 0.89 m/s, 17° | - | - |
| 1777999683 | 18.89° C | 71% | 1006.3 hPa | 0 mm | 1.34 m/s, 22° | - | - |
* Rain latest hour (hover to see other rain measurements)
** Current wind speed in m/s (hover to see current wind gust speed)